Terminal Aerodrome Forecast
Issued by NWS

Home | Current Version | Previous Version | Text Only | Print | Product List | Glossary On
Versions: 1 2 3 4 5 6 7 8 9 10 11 12 13 14 15 16 17 18 19 20 21 22 23 24 25 26 27 28 29 30 31 32 33 34 35 36 37 38 39
000
FTUS42 KGSP 301130
TAFHKY
TAF
KHKY 301130Z 3012/3112 26003KT P6SM SCT250
     FM301600 30003KT P6SM VCSH BKN050
      TEMPO 3019/3022 VRB10G20KT 4SM TSRA BKN040CB
     FM302300 35003KT P6SM SCT040
     FM310600 36007KT P6SM SCT150=

USA.gov is the U.S. government's official web portal to all federal, state and local government web resources and services.